Regional Weather Roundup
Issued by NWS

Home | Current Version | Previous Version | Graphics & Text | Print | Product List | Glossary On
Versions: 1 2 3 4 5 6 7 8 9 10 11 12 13 14 15 16 17 18 19 20 21 22 23 24 25 26 27 28 29 30 31 32 33 34 35 36 37 38 39 40 41 42 43 44 45 46 47 48 49 50
000
ASUS43 KDTX 310101
RWRMI
MICHIGAN HOURLY REGIONAL WEATHER ROUNDUP
NATIONAL WEATHER SERVICE DETROIT/PONTIAC MI
900 PM EDT THU JUL 30 2015

NOTE: "FAIR" INDICATES FEW OR NO CLOUDS BELOW 12,000 FEET WITH NO
SIGNIFICANT WEATHER AND/OR OBSTRUCTION TO VISIBILITY.

MIZ047>049-052>055-059>063-066>070-074>076-081>083-310200-
SOUTHEAST LOWER MICHIGAN

CITY           SKY/WX    TMP DP  RH WIND       PRES   REMARKS
ADRIAN         CLEAR     74  58  57 W3        29.98S
ALMA           PTCLDY    75  57  53 W6        29.93F
ANN ARBOR      CLEAR     72  58  61 W7        29.96R
BAD AXE        CLEAR     73  57  57 W5        29.90R
CARO           CLEAR     73  58  59 W5        29.90S
DETROIT CITY   CLEAR     80  54  40 W13G20    29.93R
DETROIT        PTCLDY    79  56  45 W9        29.95R
FLINT          CLEAR     77  57  50 W8        29.93S
GROSSE ILE     CLEAR     79  57  47 W5        29.93S
HILLSDALE      CLEAR     74  57  54 W5        30.00S
HOWELL         CLEAR     76  54  46 W6        29.95S

CITY           SKY/WX    TMP DP  RH WIND       PRES   REMARKS
JACKSON        CLEAR     75  57  53 W7        29.98S
LAMBERTVILLE   CLEAR     77  56  48 W3        29.98S
LANSING        CLEAR     77  57  50 W8        29.96S
LAPEER         FAIR      75  56  51 W5        29.93R
MASON          CLEAR     74  56  53 W3        29.96S
MONROE         CLEAR     74  58  57 W5        29.95R
PONTIAC        CLEAR     77  58  51 W10       29.94R
PORT HOPE        N/A     71  62  73 SE3       29.87S
PORT HURON     CLEAR     75  55  50 W5        29.91R
TRI CITIES     CLEAR     77  56  48 W8        29.92R
MIDLAND        FAIR      77  55  45 W3        29.90S
TROY           CLEAR     80  55  40 W9G16     29.95S
SAGINAW HB     CLEAR     77  55  47 W6        29.91S
$$
MIZ043>046-050>051-056>058-064>065-071>073-077>080-310200-
SOUTHWEST LOWER MICHIGAN

CITY           SKY/WX    TMP DP  RH WIND       PRES   REMARKS
BATTLE CREEK   CLEAR     75  59  57 W7        29.98F
BENTON HARBOR  CLEAR     74  61  63 W7        29.98S
BIG RAPIDS     CLEAR     75  54  48 W3        29.93S
COLDWATER      CLEAR     73  59  61 SW3       29.99S
FREMONT        FAIR      75  56  51 W6        29.94S
HOLLAND        CLEAR     74  62  66 SW5       29.96F
GRAND RAPIDS   PTCLDY    79  57  46 SW9       29.95F
IONIA          FAIR      76  57  52 W7        29.94F
KALAMAZOO      CLEAR     77  57  50 W6        29.98S
LUDINGTON      CLEAR     76  65  67 SW6       29.92F
MARSHALL       CLEAR     73  58  58 SW3       29.98S
MOUNT PLEASANT PTCLDY    78  55  45 W5        29.92S
MUSKEGON       PTCLDY    77  57  50 W7        29.94F
SOUTH HAVEN    CLEAR     75  62  62 W6        29.97F
$$
MIZ016>042-310200-
NORTHERN LOWER MICHIGAN

CITY           SKY/WX    TMP DP  RH WIND       PRES   REMARKS
ALPENA         CLEAR     72  57  59 NW6       29.88R
BEAVER ISLAND  PTCLDY    69  57  66 SE5       29.88S
BELLAIRE       CLEAR     72  58  61 CALM      29.89S
CADILLAC       CLEAR     74  54  49 W5        29.93S
CHARLEVOIX     CLEAR     73  54  50 CALM      29.92R
FRANKFORT      MOCLDY    71  62  73 CALM      29.90S
GAYLORD        CLEAR     72  54  53 CALM      29.91S
GRAYLING       CLEAR     72  51  47 CALM      29.93R
HARBOR SPRINGS CLEAR     71  55  56 CALM      29.88F
HOUGHTON LAKE  CLEAR     74  53  48 NW5       29.92R
MANISTEE       CLEAR     73  57  56 W5        29.91S
OSCODA         CLEAR     77  51  40 NW3       29.87R
PELLSTON       CLEAR     69  53  56 W3        29.88F
ROGERS CITY    CLEAR     71  52  51 NW5       29.89R
TRAVERSE CITY  PTCLDY    79  49  34 W8        29.88S
$$
MIZ007>008-015-310200-
EASTERN UPPER MICHIGAN

CITY           SKY/WX    TMP DP  RH WIND       PRES   REMARKS
KINROSS        CLEAR     70  54  56 W5        29.87S
MACKINAC ISLAN CLEAR     69  51  53 NW5       29.87S
MUNISING         N/A     72  57  59 CALM      29.85F
$$
MIZ004>006-011>014-085-310200-
CENTRAL UPPER MICHIGAN

CITY           SKY/WX    TMP DP  RH WIND       PRES   REMARKS
ESCANABA       PTCLDY    75  52  43 W10G17    29.87S
MENOMINEE      PTCLDY    66  59  77 CALM      29.91F
SAWYER-GWINN   CLEAR     75  50  41 W9        29.89R
$$
MIZ001>003-009>011-084-310200-
WESTERN UPPER MICHIGAN

CITY           SKY/WX    TMP DP  RH WIND       PRES   REMARKS
IRON MOUNTAIN  CLEAR     71  56  58 W5        29.91S
HOUGHTON       CLEAR     68  55  63 W12       29.85S
COPPER HARBOR    N/A     70  54  56 NW8       29.81F
IRONWOOD       CLEAR     72  55  56 W6        29.88S
$$

ABBREVIATIONS USED IN REMARKS
   TC - TEMPERATURE IN CELSIUS
  WCI - WIND CHILL INDEX
   HX - HEAT INDEX
  VSB - VISIBILITY




USA.gov is the U.S. government's official web portal to all federal, state and local government web resources and services.